Regional Weather Roundup
Issued by NWS

Home | Current Version | Previous Version | Text Only | Print | Product List | Glossary Off
Versions: 1 2 3 4 5 6 7 8 9 10 11 12 13 14 15 16 17 18 19 20 21 22 23 24 25 26 27 28 29 30 31 32 33 34 35 36 37 38 39 40 41 42 43 44 45 46 47 48 49 50

000
ASUS43 KMPX 160410
RWRMN
WEATHER ROUNDUP FOR MINNESOTA
NATIONAL WEATHER SERVICE TWIN CITIES/CHANHASSEN MN
1000 PM CST FRI DEC 15 2017


NOTE: "FAIR" INDICATES FEW OR NO CLOUDS BELOW 12,000 FEET WITH NO
SIGNIFICANT WEATHER AND/OR OBSTRUCTIONS TO VISIBILITY. N/A MEANS
CURRENT SKY AND/OR WEATHER CONDITIONS ARE NOT AVAILABLE.

MNZ060>063-068>070-160500-
   Twin Cities Metro

CITY           SKY/WX    TMP DP  RH WIND       PRES   REMARKS
TWIN CITIES    LGT SNOW  28  28 100 SE5       29.72F FOG     WCI  23
ST PAUL        LGT SNOW  27  26  96 SE6       29.74F FOG     WCI  20
CRYSTAL        LGT SNOW  27  23  85 SE3       29.70F FOG
BLAINE         MIX PCPN  27  27 100 SE3       29.70F
LAKEVILLE      PTCLDY    27  27 100 E3        29.70F
EDEN PRAIRIE   CLOUDY    29  27  92 E6        29.69F WCI  23
SOUTH ST PAUL  MIX PCPN  28  28  98 SE3       29.72F
LAKE ELMO      LGT SNOW  27  25  93 CALM      29.73S
$$
MNZ001>005-007-008-013>017-022>024-027-028-160500-
   Northwest Minnesota

CITY           SKY/WX    TMP DP  RH WIND       PRES   REMARKS
BEMIDJI        LGT SNOW  15  12  89 E8        29.66S WCI   4
HALLOCK        LGT SNOW  18  14  86 E14       29.66S WCI   4
ROSEAU         LGT SNOW  12   9  85 E12       29.71R WCI  -2
WARROAD        LGT SNOW  10   7  85 E12       29.73R WCI  -4
THIEF RVR FALL LGT SNOW  16  12  86 E14       29.65F FOG     WCI   1
CROOKSTON      LGT SNOW  19  18  93 E9        29.63F WCI   9
FOSSTON        LGT SNOW  18  16  93 E7        29.63F WCI   8
DETROIT LAKES  LGT SNOW  25  23  93 SE8       29.61S WCI  16
MOORHEAD       FLURRIES  28  27  93 CALM      29.59F
PARK RAPIDS    LGT SNOW  18  15  88 E6        29.63F FOG     WCI  10
MAHNOMEN       LGT SNOW  21  19  89 SE9       29.60F WCI  11
$$
MNZ006-009>011-018-025>026-160500-
   North Central Minnesota

CITY           SKY/WX    TMP DP  RH WIND       PRES   REMARKS
BAUDETTE       CLOUDY     8   4  83 E9        29.72S WCI  -5
FLAG ISLAND    CLOUDY     3   0  85 E8        29.74S WCI -10
INTL FALLS     CLOUDY     4  -1  80 E7        29.76S WCI  -8
WASKISH        LGT SNOW  12  10  92 E7        29.71S WCI   2
BIG FORK       CLOUDY    12   7  79 E5        29.71S WCI   4
LONGVILLE      LGT SNOW  18  16  93 CALM      29.69S
GRAND RAPIDS   LGT SNOW  14  11  87 E5        29.72F FOG     WCI   6
CRANE LAKE     CLOUDY    -2  -6  84 CALM      29.80S
ORR            CLOUDY     7   1  78 CALM      29.72S
COOK           FLURRIES   9   3  78 E3        29.74S
WALKER         LGT SNOW  17  14  90 E7        29.67S WCI   7
$$
MNZ012-019>021-037-160500-
   Northeast Minnesota

CITY           SKY/WX    TMP DP  RH WIND       PRES   REMARKS
DULUTH         FLURRIES  14   9  80 SE5       29.72S WCI   6
ELY            CLOUDY    -4  -8  84 CALM      29.75S
HIBBING        CLOUDY    11   5  77 E3        29.72F
EVELETH        CLOUDY    12   5  72 NE5       29.74S WCI   4
DULUTH HARBOR  FLURRIES  19  12  73 SE3       29.79S
TWO HARBORS    CLOUDY    16   7  67 NE5       29.74S WCI   9
GRAND MARAIS     N/A      7  -2  66 N7        29.85R WCI  -5
G MARAIS ARPRT PTCLDY    -8 -13  77 N6        29.73R WCI -21
$$
MNZ029>031-032-039>041-046>048-054>057-064-160500-
   West Central Minnesota

CITY           SKY/WX    TMP DP  RH WIND       PRES   REMARKS
FERGUS FALLS   CLOUDY    28  28 100 SE10      29.61F WCI  19
WHEATON        CLOUDY    30  28  93 SE9       29.59S WCI  22
MORRIS         CLOUDY    30  28  93 SE9       29.57F WCI  22
ALEXANDRIA     CLOUDY    28  26  92 E10       29.61F WCI  19
ELBOW LAKE     MOCLDY    29  28  95 SE9       29.59S WCI  21
WADENA         MIX PCPN  21  19  93 E8        29.62F WCI  12
GLENWOOD       CLOUDY    27  27 100 SE9       29.60F WCI  17
APPLETON       CLOUDY    34  28  80 SE6       29.59F WCI  29
BENSON         CLOUDY    32  28  86 S12       29.62S WCI  23
ORTONVILLE     CLOUDY    30  28  93 SE7       29.57F WCI  23
MADISON        CLOUDY    36  30  80 SE7       29.59F
WILLMAR        FAIR      30  28  93 SE8       29.63F WCI  23
$$
MNZ033>034-036-042>043-049>051-058-059-160500-
   Central Minnesota

CITY           SKY/WX    TMP DP  RH WIND       PRES   REMARKS
ST CLOUD       LGT SNOW  23  21  92 E5        29.67F FOG     WCI  17
SAUK CENTRE    FAIR      26  24  95 E6        29.63F WCI  19
PAYNESVILLE    CLOUDY    28  27  99 SE8       29.64F WCI  19
PINE RIVER     LGT SNOW  18  16  93 E6        29.71S WCI   9
BRAINERD       LGT SNOW  21  17  84 VRB3      29.68F VSB 1
STAPLES        MIX PCPN  19  18  93 E5        29.64F WCI  13
LITTLE FALLS   LGT SNOW  23  18  80 E5        29.67F WCI  17
LITCHFIELD     PTCLDY    28  28 100 SE8       29.64F WCI  20
BUFFALO        FLURRIES  28  26  93 E5        29.68F WCI  22
MAPLE LAKE     FLURRIES  28  27  96 E5        29.67F WCI  22
HUTCHINSON     MOCLDY    30  28  93 E9        29.66F WCI  22
$$
MNZ037-044-045-052-053-160500-
   East Central Minnesota

CITY           SKY/WX    TMP DP  RH WIND       PRES   REMARKS
PRINCETON      LGT SNOW  23  19  86 E5        29.69F WCI  17
MORA           LGT SNOW  19  18  93 CALM      29.73F
CAMBRIDGE      LGT SNOW  25  18  74 CALM      29.72S
RUSH CITY      LGT SNOW  20  18  92 E3        29.73F
MOOSE LAKE     LGT SNOW  19  16  86 CALM      29.72S
HINCKLEY       LGT SNOW  19  18  93 E3        29.73F
CLOQUET        LGT SNOW  14   9  79 E3        29.73S
MCGREGOR       CLOUDY    19  18  93 E6        29.72S WCI  11
$$
MNZ071>073-080-081-089-090-097-098-160500-
   Southwest Minnesota

CITY           SKY/WX    TMP DP  RH WIND       PRES   REMARKS
MONTEVIDEO     CLOUDY    34  28  80 S6        29.61S WCI  29
GRANITE FALLS  CLOUDY    35  30  82 SE7       29.62F WCI  29
CANBY          CLOUDY    38  29  71 S3        29.60F
MARSHALL       CLOUDY    36  26  67 S3        29.61F
REDWOOD FALLS  CLOUDY    34  29  82 SE7       29.62F WCI  28
OLIVIA         CLOUDY    32  30  93 SE6       29.62F WCI  26
PIPESTONE      CLOUDY    36  27  69 SW8       29.61S
WINDOM           N/A     36  21  55 S5        29.63F
WORTHINGTON    CLOUDY    37  27  67 SW15      29.64R
JACKSON        CLOUDY    34  27  75 SW8       29.64F WCI  27
SLAYTON        CLOUDY    35  28  75 CALM      29.63S
$$
MNZ065>067-074>077-082>085-091>093-160500-
   South Central Minnesota

CITY           SKY/WX    TMP DP  RH WIND       PRES   REMARKS
NEW ULM        CLOUDY    34  27  75 SE7       29.64F WCI  28
ST JAMES       CLOUDY    30  27  86 SE5       29.66F WCI  25
FAIRMONT       CLOUDY    35  25  66 S7        29.67F WCI  29
GLENCOE        CLOUDY    30  30 100 E8        29.66F WCI  23
FARIBAULT      MOCLDY    32  28  86 CALM      29.70F
OWATONNA       CLOUDY    34  28  80 SE7       29.69F WCI  28
WASECA         CLOUDY    32  28  86 SE5       29.70F WCI  27
ALBERT LEA     PTCLDY    34  25  69 S6        29.69S WCI  29
$$
MNZ078>079-086>088-094>096-160500-
   Southeast Minnesota

CITY           SKY/WX    TMP DP  RH WIND       PRES   REMARKS
ROCHESTER      CLOUDY    30  28  92 SE10      29.71F WCI  21
RED WING       LGT SNOW  28  27  93 SE5       29.73F WCI  23
STANTON        CLOUDY    32  28  86 SE3       29.70F
DODGE CENTER   CLOUDY    30  28  93 SE7       29.70F WCI  23
WINONA         MIX PCPN  32  30  93 SE3       29.77S
AUSTIN         CLOUDY    34  27  75 S3        29.70F
PRESTON        CLOUDY    30  27  88 SE5       29.73F WCI  25
$$
ABBREVIATIONS USED IN REMARKS
   TC - TEMPERATURES IN CELSIUS
  WCI - WIND CHILL INDEX
   HX - HEAT INDEX
  VSB - VISIBILITY
$$



USA.gov is the U.S. government's official web portal to all federal, state and local government web resources and services.